Station THRO1 - 9063085 - Toledo, OH Image indicating link to RSS feed of recent meteorological observations for station THRO1


Conditions at THRO1 as of
(8:30 pm EST on 12/08/2023)
0130 GMT on 12/09/2023:
     

Click on the graph icon in the table below to see a time series plot of the last five days of that observation.

5-day plot - Wind Direction Wind Direction (WDIR): S ( 190 deg true )
5-day plot - Wind Speed Wind Speed (WSPD): 9.9 kts
5-day plot - Wind Gust Wind Gust (GST): 14.0 kts
5-day plot - Atmospheric Pressure Atmospheric Pressure (PRES):29.82 in
5-day plot - Wind Speed at 10 Meters Wind Speed at 10 meters (WSPD10M): 9.7 kts
5-day plot - Wind Speed at 20 Meters Wind Speed at 20 meters (WSPD20M): 9.7 kts
5-day plot -  Wind Speed, Wind Gust and Atmospheric Pressure Combined plot of Wind Speed, Gust, and Air Pressure
NOS Water Level Observation Network Water Level
Previous observations
TIME
(EST)
5-day plot - Wind Direction
WDIR
 
5-day plot - Wind Speed
WSPD
kts
5-day plot - Wind Gust
GST
kts
5-day plot - Wave Height
WVHT
ft
5-day plot - Dominant Wave Period
DPD
sec
5-day plot - Average Wave Period
APD
sec
5-day plot - Mean Wave Direction
MWD
 
5-day plot - Atmospheric Pressure
PRES
in
5-day plot - Pressure Tendency
PTDY
in
5-day plot - Air Temperature
ATMP
°F
5-day plot - Water Temperature
WTMP
°F
5-day plot - Dew Point
DEWP
°F
5-day plot - Salinity
SAL
psu
5-day plot - Visibility
VIS
nmi
5-day plot - Tide (above MLLW)
TIDE
ft
2023-12-08 08:24 pm S 8.9 15.9----29.82-------
2023-12-08 08:18 pm S 9.9 15.9----29.82-------
2023-12-08 08:12 pm S 12.0 18.1----29.83-------
2023-12-08 08:06 pm S 13.0 18.1----29.83-------
2023-12-08 08:00 pm S 9.9 15.0----29.82+0.03------
2023-12-08 07:54 pm S 8.9 14.0----29.82-------
2023-12-08 07:48 pm S 8.9 12.0----29.82- 52.0- 40.3---
2023-12-08 07:42 pm S 7.0 9.9----29.82- 51.8- 40.3---
2023-12-08 07:36 pmSSW 8.9 15.0----29.82- 52.2- 40.5---
2023-12-08 07:30 pm S 9.9 14.0----29.82-------
2023-12-08 07:24 pmSSW 11.1 15.9----29.82-------
2023-12-08 07:18 pmSSW 11.1 18.1----29.82- 53.2- 39.9---
2023-12-08 07:12 pmSSW 11.1 15.0----29.82- 53.2- 39.9---
2023-12-08 07:06 pmSSW 9.9 13.0----29.82- 53.1- 40.1---
2023-12-08 07:00 pmSSW 9.9 15.0------------
2023-12-08 06:54 pmSSW 9.9 15.0------------
2023-12-08 06:48 pm-------29.81-------
2023-12-08 06:42 pm-------29.81-------
2023-12-08 06:36 pm-------29.81-------
2023-12-08 06:30 pm S 13.0 18.1----29.81-------
2023-12-08 06:24 pm S 13.0 21.0----29.80-------
2023-12-08 06:12 pm S 11.1 20.0----29.81-------
2023-12-08 06:06 pm S 9.9 17.1----29.81-------
2023-12-08 06:00 pm S 9.9 15.0----29.81+0.02------
2023-12-08 05:54 pm S 9.9 15.0----29.80-------
2023-12-08 05:48 pm S 11.1 15.0----29.80- 52.7- 40.1---
2023-12-08 05:42 pm S 9.9 15.0----29.80- 53.1- 40.1---
2023-12-08 05:36 pm S 12.0 18.1----29.80- 54.0- 40.1---
2023-12-08 05:30 pm S 8.9 14.0----29.80- 53.2- 40.3---
2023-12-08 05:24 pmSSW 8.9 15.9----29.80- 53.4- 40.1---
2023-12-08 05:18 pmSSW 12.0 15.0----29.80- 53.4- 39.7---
2023-12-08 05:12 pm S 11.1 15.9----29.80- 53.1- 39.9---
2023-12-08 05:06 pm S 7.0 9.9----29.80- 52.2- 39.9---
2023-12-08 05:00 pm S 7.0 9.9----29.80+0.01 52.5- 39.7---
2023-12-08 04:54 pm S 8.0 9.9----29.79- 52.7- 39.9---
2023-12-08 04:48 pm S 8.0 12.0----29.79- 52.7- 39.7---
2023-12-08 04:42 pm S 8.9 13.0----29.79- 52.9- 39.7---
2023-12-08 04:36 pm S 11.1 13.0----29.79- 53.2- 39.7---
2023-12-08 04:30 pm S 8.9 17.1----29.79- 52.9- 39.9---
2023-12-08 04:24 pm S 12.0 17.1----29.78- 53.1- 39.7---
2023-12-08 04:18 pm S 11.1 15.0----29.78- 53.2- 39.6---
2023-12-08 04:12 pm S 12.0 17.1----29.78- 53.6- 39.6---
2023-12-08 04:06 pm S 11.1 14.0----29.78- 53.2- 39.6---
2023-12-08 04:00 pm S 12.0 15.9----29.79-0.01 53.2- 39.6---
2023-12-08 03:54 pm S 8.0 15.0----29.79- 52.9- 39.7---
2023-12-08 03:48 pm S 8.0 15.0----29.79- 52.9- 39.6---
2023-12-08 03:42 pm S 8.0 11.1----29.78- 52.7- 39.4---
2023-12-08 03:36 pm S 6.0 8.9----29.78- 52.3- 39.4---
2023-12-08 03:30 pmSSW 8.9 17.1----29.78- 53.1- 38.8---
2023-12-08 03:24 pmSSW 12.0 17.1----29.78- 53.6- 38.3---
2023-12-08 03:18 pmSSW 11.1 15.0----29.78- 53.2- 38.1---
2023-12-08 03:12 pmSSW 8.9 15.0----29.78- 53.4- 38.1---
2023-12-08 03:06 pmSSW 12.0 19.0----29.79- 53.6- 37.9---
2023-12-08 03:00 pmSSW 11.1 21.0----29.78-0.02 53.4- 38.1---
2023-12-08 02:54 pmSSW 11.1 17.1----29.78- 53.6- 37.9---
2023-12-08 02:48 pmSSW 11.1 15.9----29.78- 53.1- 37.6---
2023-12-08 02:42 pmSSW 12.0 19.0----29.78- 53.1- 37.8---
2023-12-08 02:36 pmSSW 12.0 20.0----29.79- 53.1- 37.6---
2023-12-08 02:30 pmSSW 11.1 17.1----29.79- 52.9- 37.6---
2023-12-08 02:24 pm SW 7.0 14.0----29.79- 52.7- 37.6---
2023-12-08 02:18 pm SW 8.9 15.0----29.79- 52.5- 37.2---
2023-12-08 02:12 pm SW 9.9 18.1----29.79- 52.5- 37.0---
2023-12-08 02:06 pm SW 12.0 17.1----29.79- 52.7- 36.7---
2023-12-08 02:00 pmSSW 13.0 22.9----29.79-0.04 52.7- 36.9---
2023-12-08 01:54 pmSSW 11.1 19.0----29.79- 53.1- 36.5---
2023-12-08 01:48 pmSSW 13.0 21.0----29.78- 52.7- 36.7---
2023-12-08 01:42 pmSSW 12.0 17.1----29.78- 52.3- 36.5---
2023-12-08 01:36 pmSSW 9.9 19.0----29.79- 52.2- 36.7---
2023-12-08 01:30 pmSSW 8.9 17.1----29.79- 52.2- 36.3---
2023-12-08 01:24 pmSSW 15.0 22.0----29.79- 52.0- 36.1---
2023-12-08 01:18 pmSSW 12.0 18.1----29.79- 51.6- 35.8---
2023-12-08 01:12 pmSSW 9.9 15.9----29.79- 51.4- 35.8---
2023-12-08 01:06 pmSSW 9.9 18.1----29.80- 51.8- 35.8---
2023-12-08 01:00 pmSSW 9.9 18.1----29.80-0.03 51.4- 35.4---
2023-12-08 12:54 pmSSW 8.0 19.0----29.80- 51.6- 35.6---
2023-12-08 12:48 pmSSW 9.9 20.0----29.80- 51.6- 35.2---
2023-12-08 12:42 pmSSW 14.0 18.1----29.80- 51.4- 35.2---
2023-12-08 12:36 pmSSW 13.0 17.1----29.80- 51.1- 35.1---
2023-12-08 12:30 pmSSW 12.0 18.1----29.79- 50.9- 34.7---
2023-12-08 12:24 pmSSW 14.0 17.1----29.80- 50.7- 34.5---
2023-12-08 12:18 pmSSW 11.1 19.0----29.80- 50.7- 34.5---
2023-12-08 12:12 pmSSW 13.0 17.1----29.80- 50.5- 34.3---
2023-12-08 12:06 pmSSW 9.9 19.0----29.80- 50.4- 34.5---
2023-12-08 12:00 pmSSW 12.0 17.1----29.80-0.01 50.2- 34.2---
2023-12-08 11:54 amSSW 12.0 17.1----29.81- 50.0- 33.8---
2023-12-08 11:48 amSSW 11.1 15.9----29.81- 49.6- 34.2---
2023-12-08 11:42 amSSW 13.0 18.1----29.81- 49.6- 34.0---
2023-12-08 11:36 amSSW 12.0 18.1----29.81- 49.3- 33.8---
2023-12-08 11:30 amSSW 12.0 15.9----29.82- 49.1- 34.0---
2023-12-08 11:24 amSSW 11.1 15.9----29.82- 48.9- 33.6---
2023-12-08 11:18 amSSW 12.0 19.0----29.82- 48.7- 33.4---
2023-12-08 11:12 amSSW 13.0 19.0----29.82- 48.6- 33.3---
2023-12-08 11:06 amSSW 11.1 18.1----29.82- 48.2- 33.4---
2023-12-08 11:00 amSSW 11.1 18.1----29.82+0.01 48.2- 33.3---
2023-12-08 10:54 amSSW 12.0 17.1----29.82- 48.0- 33.4---
2023-12-08 10:48 amSSW 13.0 19.0----29.83- 48.0- 33.3---
2023-12-08 10:42 amSSW 9.9 15.0----29.83- 47.8- 33.3---
2023-12-08 10:36 amSSW 8.9 15.0----29.83- 47.7- 33.3---
2023-12-08 10:30 amSSW 11.1 15.0----29.83- 47.5- 33.3---
2023-12-08 10:24 amSSW 13.0 18.1----29.83- 47.3- 33.3---
2023-12-08 10:18 amSSW 12.0 17.1----29.82- 47.1- 33.3---
2023-12-08 10:12 amSSW 12.0 18.1----29.83- 46.9- 33.3---
2023-12-08 10:06 amSSW 12.0 17.1----29.82- 46.8- 33.4---
2023-12-08 10:00 amSSW 14.0 18.1----29.82+0.00 46.8- 33.3---
2023-12-08 09:54 amSSW 15.9 19.0----29.82- 46.8- 32.9---
2023-12-08 09:48 amSSW 15.0 19.0----29.82- 47.3- 33.1---
2023-12-08 09:42 amSSW 14.0 21.0----29.82- 47.3- 32.9---
2023-12-08 09:36 amSSW 15.9 20.0----29.82- 47.1- 33.1---
2023-12-08 09:30 amSSW 12.0 15.9----29.82- 46.9- 33.6---
2023-12-08 09:24 am S 12.0 17.1----29.82- 46.6- 33.6---
2023-12-08 09:18 am S 8.9 15.0----29.82- 45.9- 34.0---
2023-12-08 09:12 am S 8.0 15.9----29.82- 45.0- 33.6---
2023-12-08 09:06 am S 8.0 12.0----29.82- 44.6- 33.8---
2023-12-08 09:00 am S 8.9 13.0----29.82- 43.9- 33.4---
2023-12-08 08:54 am S 8.0 13.0----29.82- 43.3- 33.4---
2023-12-08 08:48 am S 8.9 13.0----29.82- 42.8- 33.4---
2023-12-08 08:42 am S 8.9 13.0----29.82- 42.3- 33.4---
2023-12-08 08:36 am S 9.9 13.0----29.82- 41.7- 33.3---
2023-12-08 08:30 am S 11.1 14.0----29.82- 41.4- 33.3---
2023-12-08 08:24 am S 9.9 12.0----29.82- 41.0- 33.1---
2023-12-08 08:18 am S 9.9 13.0----29.82- 40.5- 33.1---
2023-12-08 08:12 am S 9.9 12.0----29.82- 40.1- 33.1---
2023-12-08 08:06 am S 8.9 12.0----29.82- 40.1- 33.1---
2023-12-08 08:00 am S 9.9 13.0----29.81-0.01 40.1- 33.1---
2023-12-08 07:54 am S 9.9 12.0----29.81- 40.1- 33.1---
2023-12-08 07:48 am S 8.9 12.0----29.81- 40.1- 32.7---
2023-12-08 07:42 am S 8.9 12.0----29.81- 40.3- 32.9---
2023-12-08 07:36 am S 9.9 12.0----29.81- 40.5- 32.9---
2023-12-08 07:30 am S 8.9 12.0----29.81- 40.5- 33.1---
2023-12-08 07:24 am S 8.9 12.0----29.81- 40.5- 33.3---
2023-12-08 07:18 am S 9.9 12.0----29.81- 40.8- 33.3---
2023-12-08 07:12 am S 9.9 12.0----29.82- 41.0- 33.1---
2023-12-08 07:06 am S 8.9 12.0----29.81- 41.0- 33.3---
2023-12-08 07:00 am S 11.1 13.0----29.82-0.01 41.4- 33.6---
2023-12-08 06:54 am S 9.9 12.0----29.82- 41.5- 33.6---
2023-12-08 06:48 am S 9.9 11.1----29.82- 41.5- 33.4---
2023-12-08 06:42 am S 9.9 11.1----29.82- 41.7- 33.6---
2023-12-08 06:36 am S 9.9 12.0----29.82- 41.7- 33.8---
2023-12-08 06:30 am S 9.9 12.0----29.82- 41.7- 33.6---
2023-12-08 06:24 am S 8.9 13.0----29.82- 41.9- 33.8---
2023-12-08 06:18 am S 9.9 13.0----29.81- 41.9- 34.0---
2023-12-08 06:12 am S 9.9 12.0----29.82- 41.7- 34.0---
2023-12-08 06:06 am S 8.9 11.1----29.82- 41.7- 34.0---
2023-12-08 06:00 am--------- 41.7- 34.0---
2023-12-08 05:54 am--------- 41.7- 34.0---
2023-12-08 05:48 am S 8.9 12.0----29.82- 41.7- 34.0---
2023-12-08 05:42 am S 8.9 12.0----29.82- 41.5- 34.2---
2023-12-08 05:36 am S 8.9 11.1----29.82- 41.4- 34.0---
2023-12-08 05:30 am S 8.9 12.0----29.82- 41.2- 34.2---
2023-12-08 05:24 am S 8.9 12.0----29.82- 41.2- 34.3---
2023-12-08 05:18 am S 8.0 11.1----29.82- 41.0- 34.3---
2023-12-08 05:12 am S 8.0 11.1----29.82- 41.2- 34.2---
2023-12-08 05:06 am S 8.9 12.0----29.82- 41.4- 34.3---
2023-12-08 05:00 am S 8.9 11.1----29.83+0.00 41.4- 34.3---
2023-12-08 04:54 am S 8.9 11.1----29.83- 41.5- 34.3---
2023-12-08 04:48 am S 8.0 9.9----29.83- 41.4- 34.3---
2023-12-08 04:42 am S 8.0 12.0----29.83- 41.4- 34.7---
2023-12-08 04:36 am S 7.0 9.9----29.83- 41.4- 34.5---
2023-12-08 04:30 am S 8.0 9.9----29.83- 41.4- 34.5---
2023-12-08 04:24 am S 8.0 11.1----29.83- 41.5- 34.5---
2023-12-08 04:18 am S 8.0 11.1----29.83- 41.5- 34.7---
2023-12-08 04:12 am S 7.0 8.9----29.83- 41.4- 34.7---
2023-12-08 04:06 am S 7.0 9.9----29.83- 41.2- 34.9---
2023-12-08 04:00 am S 7.0 8.9----29.83+0.00 41.0- 34.7---
2023-12-08 03:54 am S 7.0 8.9----29.83- 41.0- 34.9---
2023-12-08 03:48 am S 7.0 9.9----29.83- 40.6- 34.7---
2023-12-08 03:42 am S 6.0 8.9----29.84- 40.6- 34.7---
2023-12-08 03:36 am S 8.0 8.9----29.83- 40.8- 34.9---
2023-12-08 03:30 am S 8.0 9.9----29.83- 40.8- 34.5---
2023-12-08 03:24 am S 7.0 9.9----29.83- 40.8- 34.7---
2023-12-08 03:18 am S 7.0 8.9----29.83- 40.6- 34.9---
2023-12-08 03:12 am S 7.0 8.9----29.84- 40.5- 34.9---
2023-12-08 03:06 am S 5.1 7.0----29.84- 40.3- 34.9---
2023-12-08 03:00 am S 6.0 8.0----29.84+0.00 40.3- 34.9---
2023-12-08 02:54 am S 6.0 8.0----29.84- 40.3- 34.7---
2023-12-08 02:48 am S 6.0 8.0----29.84- 40.1- 34.7---
2023-12-08 02:42 am S 6.0 8.9----29.84- 40.3- 34.5---
2023-12-08 02:36 am S 7.0 9.9----29.83- 40.3- 34.7---
2023-12-08 02:30 am S 8.0 11.1----29.83- 40.1- 34.5---
2023-12-08 02:24 am S 8.0 9.9----29.83- 40.1- 34.5---
2023-12-08 02:18 am S 7.0 8.9----29.83- 40.5- 34.7---
2023-12-08 02:12 am S 7.0 8.9----29.83- 40.3- 34.7---
2023-12-08 02:06 am S 6.0 8.0----29.83- 40.1- 34.7---
2023-12-08 02:00 amSSE 6.0 8.0----29.83-0.01 40.3- 34.5---
2023-12-08 01:54 am S 5.1 8.0----29.83- 40.5- 34.7---
2023-12-08 01:48 am S 6.0 8.0----29.83- 40.5- 34.7---
2023-12-08 01:42 am S 7.0 8.9----29.83- 40.6- 34.9---
2023-12-08 01:36 am S 7.0 8.9----29.83- 40.5- 34.9---
2023-12-08 01:30 am S 6.0 8.9----29.83- 40.5- 34.7---
2023-12-08 01:24 am S 7.0 8.0----29.84- 40.6- 35.1---
2023-12-08 01:18 am S 7.0 8.0----29.83- 40.6- 34.9---
2023-12-08 01:12 am S 6.0 8.0----29.83- 40.8- 34.9---
2023-12-08 01:06 amSSE 6.0 7.0----29.83- 40.8- 34.7---
2023-12-08 01:00 am S 5.1 8.0----29.83-0.01 40.8- 35.1---
2023-12-08 12:54 am S 6.0 8.0----29.83- 40.8- 34.9---
2023-12-08 12:48 am S 6.0 8.0----29.83- 40.8- 34.9---
2023-12-08 12:42 amSSE 5.1 7.0----29.83- 40.8- 34.9---
2023-12-08 12:36 am S 5.1 6.0----29.83- 40.6- 35.1---
2023-12-08 12:30 am S 5.1 8.0----29.84- 40.8- 34.9---
2023-12-08 12:24 am S 5.1 7.0----29.84- 41.0- 35.1---
2023-12-08 12:18 am S 5.1 7.0----29.84- 41.4- 35.1---
2023-12-08 12:12 amSSE 6.0 8.0----29.84- 41.5- 35.2---
2023-12-08 12:06 amSSE 5.1 8.0----29.84- 41.4- 35.2---
2023-12-08 12:00 amSSE 5.1 8.0----29.84-0.01 41.7- 35.1---
2023-12-07 11:54 pm S 6.0 7.0----29.84- 42.1- 35.4---
2023-12-07 11:48 pm S 7.0 8.9----29.84- 41.9- 35.6---
2023-12-07 11:42 pm S 6.0 7.0----29.84- 42.1- 35.8---
2023-12-07 11:36 pm S 5.1 6.0----29.85- 41.9- 35.8---
2023-12-07 11:30 pm S 5.1 7.0----29.85- 41.7- 35.6---
2023-12-07 11:24 pm S 5.1 7.0----29.85- 41.7- 35.6---
2023-12-07 11:18 pm S 5.1 8.0----29.85- 41.9- 35.6---
2023-12-07 11:12 pm S 5.1 8.0----29.85- 41.9- 35.6---
2023-12-07 11:06 pm S 7.0 8.0----29.84- 42.3- 35.6---
2023-12-07 11:00 pm S 5.1 8.0----29.84-0.02 42.3- 35.8---
2023-12-07 10:54 pm S 5.1 6.0----29.84- 41.9- 36.0---
2023-12-07 10:48 pmSSW 6.0 8.0----29.84- 41.9- 36.1---
2023-12-07 10:42 pmSSW 4.1 7.0----29.84- 41.9- 36.1---
2023-12-07 10:36 pm S 4.1 8.9----29.84- 41.7- 35.8---
2023-12-07 10:30 pmSSW 5.1 7.0----29.84- 42.1- 36.0---
2023-12-07 10:24 pm S 4.1 7.0----29.84- 41.9- 36.0---
2023-12-07 10:18 pm S 5.1 5.1----29.84- 41.9- 35.8---
2023-12-07 10:12 pmSSW 5.1 6.0----29.84- 41.9- 35.8---
2023-12-07 10:06 pm S 4.1 5.1----29.84- 41.9- 35.8---
2023-12-07 10:00 pm S 4.1 5.1----29.84-0.03 41.7- 35.8---
2023-12-07 09:54 pm S 4.1 5.1----29.84- 41.5- 35.6---
2023-12-07 09:48 pm S 2.9 5.1----29.84- 41.5- 35.4---
2023-12-07 09:42 pm S 4.1 5.1----29.85- 41.4- 35.8---
2023-12-07 09:36 pm S 4.1 5.1----29.85- 41.2- 35.6---
2023-12-07 09:30 pm S 2.9 4.1----29.85- 41.4- 36.0---
2023-12-07 09:24 pm S 2.9 4.1----29.85- 41.4- 36.0---
2023-12-07 09:18 pm S 2.9 5.1----29.85- 41.4- 35.4---
2023-12-07 09:12 pm S 4.1 6.0----29.85- 41.5- 35.8---
2023-12-07 09:06 pm S 5.1 6.0----29.85- 41.9- 35.6---
2023-12-07 09:00 pm S 5.1 8.0----29.85-0.01 42.1- 35.8---
2023-12-07 08:54 pm S 5.1 7.0----29.85- 41.7- 35.8---